Torna al catalogo

STARLINK-11178

AttivoComunicazioniVLEO
NORAD 62465·PAYLOAD·🇺🇸 United States

Lanciato Dec 31, 2024 da Cape Canaveral Space Force Station

Loading…

Prossimi Passaggi (prossime 24 ore)

TLE

AggiornatoSource: CelesTrak SupGP

Epoca: Sep 14, 2026, 14:29 UTC

1 62465C 24254D   26257.60395833 -.00003481  00000+0 -27059-4 0  2570
2 62465  43.0005 164.5052 0001340 270.1911 315.1905 15.70820559    16

Traccia STARLINK-11178 in tempo reale con AllMySat

Download on the App Store